User: anonymous   Login
Location: Valdosta
(30.8330°N, 83.2790°W)
Time: 03:12:42
(UTC-05:00)
Language:

Uribyol 2 - Orbit

View from above orbital plane
View from above orbital plane
View from above satellite
View from above satellite

Ground track
Ground track

The orbit data is extracted from the following two-line orbital elements,

1 22828U 93061F   16338.74216232  .00000044  00000-0  34053-4 0  9996
2 22828  98.7692 295.2054 0010520 137.2883 222.9119 14.30616494177999
Epoch (UTC): 03 December 2016 17:48:42
Eccentricity: 0.0010520
inclination: 98.7692°
perigee height: 782 km
apogee height: 797 km
right ascension of ascending node: 295.2054°
argument of perigee: 137.2883°
revolutions per day: 14.30616494
mean anomaly at epoch: 222.9119°
orbit number at epoch: 17799

The dashed part of the orbit path shows where the satellite is in the earth's shadow,  

DLR